TimeCDT,TemperatureF,Dew PointF,Humidity,Sea Level PressureIn,VisibilityMPH,Wind Direction,Wind SpeedMPH,Gust SpeedMPH,PrecipitationIn,Events,Conditions,WindDirDegrees,DateUTC
12:53 AM,37.0,35.1,93,30.07,10.0,Calm,Calm,-,N/A,,Clear,0,2013-06-03 05:53:00
1:53 AM,33.1,32.0,96,30.06,1.5,Calm,Calm,-,N/A,,Clear,0,2013-06-03 06:53:00
1:56 AM,33.8,32.0,93,30.03,0.8,Calm,Calm,-,N/A,,Mist,0,2013-06-03 06:56:00
2:04 AM,33.8,33.8,100,30.03,1.0,Calm,Calm,-,N/A,,Clear,0,2013-06-03 07:04:00
2:12 AM,33.8,33.8,100,30.03,0.8,Calm,Calm,-,N/A,,Clear,0,2013-06-03 07:12:00
2:17 AM,33.8,33.8,100,30.03,2.0,Calm,Calm,-,N/A,,Clear,0,2013-06-03 07:17:00
2:24 AM,33.8,32.0,93,30.03,4.0,Calm,Calm,-,N/A,,Clear,0,2013-06-03 07:24:00
2:30 AM,33.8,33.8,100,30.03,1.8,Calm,Calm,-,N/A,,Clear,0,2013-06-03 07:30:00
2:41 AM,33.8,33.8,100,30.03,3.0,Calm,Calm,-,N/A,,Clear,0,2013-06-03 07:41:00
2:53 AM,34.0,33.1,96,30.06,7.0,Calm,Calm,-,N/A,,Clear,0,2013-06-03 07:53:00
3:19 AM,33.8,33.8,100,30.03,1.8,Calm,Calm,-,N/A,,Clear,0,2013-06-03 08:19:00
3:35 AM,32.0,32.0,100,30.03,0.5,Calm,Calm,-,N/A,Fog,Fog,0,2013-06-03 08:35:00
3:51 AM,32.0,32.0,100,30.03,0.8,Calm,Calm,-,N/A,,Mist,0,2013-06-03 08:51:00
3:53 AM,32.0,32.0,100,30.06,0.8,Calm,Calm,-,N/A,,Mist,0,2013-06-03 08:53:00
4:20 AM,35.6,33.8,93,30.03,1.0,Calm,Calm,-,N/A,,Clear,0,2013-06-03 09:20:00
4:24 AM,35.6,33.8,93,30.03,3.0,Calm,Calm,-,N/A,,Clear,0,2013-06-03 09:24:00
4:53 AM,34.0,33.1,96,30.06,10.0,Calm,Calm,-,N/A,,Clear,0,2013-06-03 09:53:00
5:53 AM,35.1,33.1,92,30.08,10.0,Calm,Calm,-,N/A,,Clear,0,2013-06-03 10:53:00
6:53 AM,43.0,37.9,82,30.07,10.0,Calm,Calm,-,N/A,,Clear,0,2013-06-03 11:53:00
7:53 AM,50.0,37.9,63,30.08,10.0,Calm,Calm,-,N/A,,Clear,0,2013-06-03 12:53:00
8:53 AM,54.0,34.0,47,30.09,10.0,Calm,Calm,-,N/A,,Clear,0,2013-06-03 13:53:00
9:53 AM,57.0,34.0,42,30.09,10.0,Variable,3.5,-,N/A,,Clear,0,2013-06-03 14:53:00
10:53 AM,60.1,33.1,36,30.08,10.0,Variable,3.5,-,N/A,,Clear,0,2013-06-03 15:53:00
11:53 AM,63.0,34.0,34,30.08,10.0,NW,8.1,-,N/A,,Clear,320,2013-06-03 16:53:00
12:53 PM,64.0,33.1,31,30.07,10.0,NW,12.7,17.3,N/A,,Clear,310,2013-06-03 17:53:00
1:53 PM,66.0,34.0,30,30.07,10.0,West,11.5,17.3,N/A,,Clear,270,2013-06-03 18:53:00
2:53 PM,66.0,34.0,30,30.06,10.0,Variable,5.8,-,N/A,,Clear,0,2013-06-03 19:53:00
3:53 PM,64.0,32.0,30,30.06,10.0,Variable,6.9,-,N/A,,Clear,0,2013-06-03 20:53:00
4:53 PM,64.0,30.9,29,30.06,10.0,Variable,6.9,-,N/A,,Clear,0,2013-06-03 21:53:00
5:53 PM,62.1,32.0,32,30.06,10.0,NNE,5.8,-,N/A,,Clear,30,2013-06-03 22:53:00
6:53 PM,60.1,28.9,31,30.07,10.0,North,4.6,-,N/A,,Clear,10,2013-06-03 23:53:00
7:53 PM,57.0,33.1,40,30.09,10.0,NE,5.8,-,N/A,,Clear,40,2013-06-04 00:53:00
8:53 PM,53.1,32.0,45,30.10,10.0,NE,3.5,-,N/A,,Clear,40,2013-06-04 01:53:00
9:53 PM,52.0,32.0,47,30.14,10.0,Calm,Calm,-,N/A,,Clear,0,2013-06-04 02:53:00
10:53 PM,50.0,34.0,54,30.14,10.0,NE,3.5,-,N/A,,Clear,40,2013-06-04 03:53:00
11:53 PM,48.9,33.1,54,30.14,10.0,SE,3.5,-,N/A,,Clear,130,2013-06-04 04:53:00